Simultaneous Nadir Overpasses (SNOs) Predictions

Prediction of SNOs between NOAA-15 and METOP-C Satellite Orbit:

Table of predicted SNOs for the next 14.0 days since TLE Epoch: 4/11/2023
Index Date (NOAA-15) Time (NOAA-15) Lat,Lon (NOAA-15) SZA (NOAA-15 ) Date (METOP-C) Time (METOP-C) Lat,Lon (METOP-C) SZA (METOP-C ) Distance(km) Time Diff (sec)
1 04/25/2023 13:27:53 81.08, 16.55 69.89 04/25/2023 13:26:44 81.08, 16.53 69.86 0.53 69
2 04/25/2023 14:18:22 -81.07,-175.98 110.12 04/25/2023 14:17:24 -81.08,-176.04 110.14 1.57 58
3 04/25/2023 15:08:54 81.08, -8.66 69.87 04/25/2023 15:08:05 81.09, -8.59 69.87 1.86 49
4 04/25/2023 15:59:24 -81.09, 158.45 110.17 04/25/2023 15:58:46 -81.08, 158.47 110.19 1.10 38
5 04/25/2023 16:49:55 81.09, -34.24 69.82 04/25/2023 16:49:26 81.08, -34.08 69.82 2.79 29
6 04/25/2023 17:40:24 -81.08, 133.24 110.18 04/25/2023 17:40:06 -81.09, 133.35 110.18 1.86 18
7 04/25/2023 18:30:56 81.09, -59.45 69.81 04/25/2023 18:30:48 81.08, -59.58 69.78 2.53 8
8 04/25/2023 19:21:25 -81.08, 108.04 110.20 04/25/2023 19:21:28 -81.08, 107.86 110.22 3.11 3
9 04/25/2023 20:11:57 81.09, -84.66 69.79 04/25/2023 20:12:09 81.09, -84.70 69.79 0.65 12
10 04/25/2023 21:02:26 -81.08, 82.83 110.22 04/25/2023 21:02:49 -81.09, 82.73 110.22 1.88 23



Historial Predications of SNOs between NOAA-15 and METOP-C
